Location: Soapstone Prairie Natural Area
(40.9437°N, 105.0829°W)
Time: 00:10:43
(UTC-06:00)

ISS - Visible Passes

Search period start: 01 July 2016 00:00
Search period end: 11 July 2016 00:00
Orbit: 402 x 403 km, 51.6° (Epoch: 30 June)

Date Brightness Start Highest point End Pass type
(mag) Time Alt. Az. Time Alt. Az. Time Alt. Az.
07 Jul -1.6 05:01:02 10° SSW 05:03:50 26° SE 05:06:37 10° ENE visible
08 Jul -0.8 04:09:28 10° SSE 04:11:12 14° SE 04:12:57 10° E visible
09 Jul -3.1 04:51:20 11° SW 04:54:27 65° SE 04:57:42 10° ENE visible
10 Jul -2.1 04:00:35 24° S 04:01:44 32° SE 04:04:40 10° ENE visible
